Вернуться в каталог

INTELSAT 31

АктивенСвязьGEO
NORAD 41581·PAYLOAD· XX

Запущен Jun 9, 2016 с Baikonur Cosmodrome

Loading…

TLE

СвежийSource: CelesTrak SupGP

Эпоха: Sep 14, 2026, 00:00 UTC

1 41581C 16035A   26257.00000000 -.00000061  00000+0  00000+0 0  2579
2 41581   0.0239 237.8196 0001108  48.6416 331.4810  1.00272067    16

Отслеживайте INTELSAT 31 в реальном времени с AllMySat

Download on the App Store